1499036400.62,35823,16.94,73754.8,1.65,0.97,0.95,0,*72
1499036401.81,35824,16.94,73736.5,1.65,0.95,0.97,0,*75
1499036403.02,35825,16.94,73740.0,1.67,0.95,0.97,0,*76
1499036404.25,35826,16.94,73744.3,1.67,0.95,0.95,0,*77
1499036405.43,35827,16.94,73748.3,1.69,1.01,1.01,0,*78
1499036406.66,35828,16.94,73748.8,1.67,0.95,0.95,0,*79
1499036407.85,35829,16.94,73754.0,1.67,0.97,0.97,0,*78
1499036409.06,35830,16.94,73744.5,1.67,0.97,0.95,0,*72
1499036410.28,35831,16.94,73750.8,1.67,0.97,0.95,0,*73
1499036411.45,35832,16.94,73750.0,1.69,1.01,1.01,0,*7C
1499036412.67,35833,16.94,73758.8,1.67,0.97,0.95,0,*71
1499036413.84,35834,16.94,73752.0,1.69,1.01,1.01,0,*7A
1499036415.02,35835,16.94,73748.3,1.69,1.01,1.01,0,*7B
1499036416.18,35836,16.94,73736.0,1.69,0.97,0.97,0,*78
1499036417.36,35837,16.94,73748.5,1.69,0.97,1.01,0,*47
1499036418.58,35838,16.94,73744.3,1.67,0.97,1.09,0,*4E
1499036419.81,35839,16.94,73754.5,1.67,1.09,1.05,0,*75
1499036420.98,35840,16.94,73760.8,1.69,0.97,0.97,0,*79
1499036422.15,35841,16.94,73752.8,1.69,1.01,0.97,0,*46
1499036423.31,35842,16.94,73758.0,1.69,1.01,0.97,0,*45
1499036424.48,35843,16.94,73764.0,1.69,0.97,0.97,0,*7A
1499036425.72,35844,16.94,73770.3,1.67,0.95,0.95,0,*73
1499036426.89,35845,16.94,73740.8,1.69,1.01,1.01,0,*7C
1499036428.06,35846,16.94,73750.5,1.69,0.97,0.97,0,*7F
1499036429.25,35847,16.94,73760.3,1.69,0.97,0.95,0,*7C
1499036430.47,35848,16.94,73758.0,1.69,0.87,0.87,0,*71
1499036431.68,35849,16.94,73756.3,1.69,0.95,0.95,0,*70
1499036432.89,35850,16.94,73754.5,1.69,0.95,0.95,0,*78
1499036434.13,35851,16.94,73752.8,1.67,0.91,0.95,0,*73
1499036435.3,35852,16.94,73748.5,1.69,0.97,0.97,0,*7A
1499036436.5,35853,16.94,73750.5,1.71,0.97,1.01,0,*4C
1499036437.67,35854,16.94,73756.5,1.69,1.01,1.01,0,*7C
1499036438.84,35855,16.94,73760.3,1.69,0.97,0.97,0,*7D
1499036440.01,35856,16.94,73766.0,1.69,1.01,0.97,0,*40
1499036441.17,35857,16.94,73748.5,1.69,0.97,0.97,0,*7F
1499036442.41,35858,16.94,73752.5,1.71,0.95,0.95,0,*79
1499036443.65,35859,16.94,73758.8,1.71,0.95,0.95,0,*78
1499036444.86,35860,16.94,73740.5,1.71,0.95,0.97,0,*70
1499036446.08,35861,16.94,73742.8,1.71,0.95,0.97,0,*71
1499036447.31,35862,16.94,73754.8,1.71,1.09,1.01,0,*78
1499036448.54,35863,16.94,73764.5,1.71,1.13,1.01,0,*72
1499036449.74,35864,16.94,73758.8,1.71,1.01,1.01,0,*76
1499036450.94,35865,16.94,73758.3,1.71,0.97,1.01,0,*49
1499036452.14,35866,16.94,73754.0,1.71,1.01,0.97,0,*4A
1499036453.34,35867,16.94,73754.5,1.71,1.01,0.97,0,*4B
1499036454.51,35868,16.94,73752.3,1.69,1.01,1.01,0,*73
1499036455.71,35869,16.94,73756.5,1.69,1.09,1.01,0,*7A
1499036456.91,35870,16.94,73756.5,1.71,0.97,0.97,0,*73
1499036458.1,35871,16.94,73758.5,1.71,0.97,0.97,0,*72
1499036459.3,35872,16.94,73760.0,1.71,1.01,0.97,0,*4F
1499036460.49,35873,16.94,73770.3,1.71,0.97,0.97,0,*70
1499036461.69,35874,16.94,73780.8,1.71,0.97,0.97,0,*77
1499036462.92,35875,16.94,73774.5,1.71,0.95,0.95,0,*76
1499036464.16,35876,16.94,73748.0,1.71,0.95,0.95,0,*75
1499036465.4,35877,16.94,73752.3,1.71,0.95,0.95,0,*74
1499036466.59,35878,16.94,73750.3,1.73,1.01,0.97,0,*47
1499036467.83,35879,16.94,73752.0,1.71,0.95,0.95,0,*7A
1499036469.03,35880,16.94,73764.5,1.71,1.01,1.01,0,*7C
1499036470.26,35881,16.94,73764.8,1.71,0.97,1.09,0,*4B
1499036471.45,35882,16.94,73754.3,1.71,0.97,0.97,0,*7E
1499036472.65,35883,16.94,73766.0,1.71,1.01,0.97,0,*41
1499036473.86,35884,16.94,73762.0,1.71,0.95,0.97,0,*7A
1499036475.11,35885,16.94,73744.8,1.71,0.95,0.87,0,*7A
1499036476.34,35886,16.94,73744.5,1.71,0.95,0.95,0,*7A
1499036477.54,35887,16.94,73748.5,1.73,0.97,0.97,0,*79
1499036478.74,35888,16.94,73734.0,1.71,1.01,1.01,0,*74
1499036479.97,35889,16.94,73740.8,1.73,1.05,1.13,0,*70
1499036481.22,35890,16.94,73756.0,1.73,1.13,1.13,0,*7F
1499036482.49,35891,16.94,73758.0,1.71,1.13,1.09,0,*77
1499036483.68,35892,16.94,73760.0,1.71,0.97,0.97,0,*7F
1499036484.88,35893,16.94,73756.8,1.73,0.97,1.01,0,*42
1499036486.13,35894,16.94,73750.5,1.71,0.87,0.87,0,*79
1499036487.32,35895,16.94,73762.0,1.73,0.97,0.97,0,*7A
1499036488.51,35896,16.94,73756.0,1.73,0.97,0.97,0,*79
1499036489.75,35897,16.94,73744.3,1.71,0.95,0.87,0,*79
1499036490.97,35898,16.94,73744.3,1.71,0.95,1.05,0,*4D
1499036492.18,35899,16.94,73746.8,1.71,1.01,1.01,0,*74
1499036493.38,35900,16.94,73754.5,1.73,1.01,1.05,0,*73
1499036494.57,35901,16.94,73748.3,1.71,0.97,0.97,0,*74
1499036495.77,35902,16.94,73748.5,1.73,1.05,1.05,0,*75
1499036496.97,35903,16.94,73758.5,1.73,1.01,1.01,0,*74
1499036498.17,35904,16.94,73742.8,1.71,0.97,0.97,0,*71
1499036499.37,35905,16.94,73746.8,1.73,1.01,1.01,0,*72
1499036500.56,35906,16.94,73742.0,1.73,0.97,0.97,0,*71
1499036501.75,35907,16.94,73750.0,1.73,0.97,0.97,0,*70
1499036502.95,35908,16.94,73746.3,1.73,0.97,1.01,0,*41
1499036504.15,35909,16.94,73748.5,1.73,0.97,1.01,0,*40
1499036505.35,35910,16.94,73746.5,1.73,0.97,1.01,0,*48
1499036506.56,35911,16.94,73748.8,1.71,0.95,0.97,0,*77
1499036507.77,35912,16.94,73744.8,1.71,0.95,0.97,0,*74
1499036509.0,35913,16.94,73746.3,1.73,0.97,0.91,0,*73
1499036510.24,35914,16.94,73744.3,1.71,0.95,0.95,0,*70
1499036511.43,35915,16.94,73744.8,1.73,0.97,0.97,0,*73
1499036512.66,35916,16.94,73750.0,1.71,0.95,0.95,0,*72
1499036513.9,35917,16.94,73752.3,1.71,0.95,0.95,0,*73
1499036515.15,35918,16.94,73746.3,1.71,0.87,0.87,0,*7C
1499036516.34,35919,16.94,73750.3,1.73,0.97,0.97,0,*7F
1499036517.59,35920,16.94,73752.8,1.71,0.95,0.87,0,*74
1499036518.83,35921,16.94,73748.3,1.71,0.87,0.87,0,*76
1499036520.07,35922,16.94,73754.3,1.71,0.75,0.87,0,*78
1499036521.31,35923,16.94,73758.8,1.71,0.71,0.63,0,*77
1499036522.55,35924,16.94,73750.8,1.71,0.47,0.41,0,*75
1499036523.79,35925,16.94,73754.0,1.71,0.37,0.37,0,*72
1499036525.03,35926,16.94,73756.0,1.71,0.41,0.41,0,*71
1499036526.24,35927,16.94,73756.5,1.69,0.47,0.47,0,*79
1499036527.48,35928,16.94,73758.0,1.67,0.71,0.71,0,*78
1499036528.7,35929,16.94,73758.5,1.69,0.87,0.87,0,*77
1499036529.94,35930,16.94,73748.0,1.71,0.87,0.95,0,*75
1499036531.16,35931,16.94,73750.3,1.69,0.87,0.95,0,*7D
1499036532.37,35932,16.94,73756.8,1.69,0.95,0.87,0,*7E
1499036533.59,35933,16.94,73756.5,1.69,0.95,0.95,0,*7C
1499036534.78,35934,16.94,73760.0,1.69,0.97,0.95,0,*79
1499036535.95,35935,16.94,73756.3,1.69,1.01,1.01,0,*7A
1499036537.18,35936,16.94,73752.3,1.69,1.09,1.09,0,*79
1499036538.42,35937,16.94,73758.3,1.69,1.13,1.13,0,*78
1499036539.65,35938,16.94,73762.5,1.69,1.09,1.13,0,*7C
1499036540.91,35939,16.94,73760.0,1.71,1.13,1.21,0,*7E
1499036542.17,35940,16.94,73758.0,1.71,1.21,1.21,0,*71
1499036543.43,35941,16.94,73756.8,1.73,1.17,1.13,0,*76
1499036544.69,35942,16.94,73762.0,1.73,1.13,1.13,0,*71
1499036545.95,35943,16.94,73758.0,1.71,1.13,1.13,0,*72
1499036547.21,35944,16.94,73764.0,1.71,1.09,1.13,0,*7E
1499036548.46,35945,16.94,73758.3,1.71,1.09,1.13,0,*7F
1499036549.72,35946,16.94,73760.8,1.73,1.13,1.13,0,*75
1499036550.92,35947,16.94,73770.0,1.73,1.05,1.01,0,*70
1499036552.13,35948,16.94,73770.8,1.71,1.01,1.05,0,*7D
1499036553.32,35949,16.94,73764.8,1.71,0.97,1.01,0,*46
1499036554.53,35950,16.94,73762.0,1.73,1.05,1.05,0,*72
1499036555.73,35951,16.94,73750.5,1.73,1.05,1.05,0,*73
1499036556.92,35952,16.94,73718.5,1.71,1.01,0.97,0,*4C
1499036558.13,35953,16.94,73758.3,1.73,1.05,1.05,0,*71
1499036559.38,35954,16.94,73752.8,1.73,1.13,1.13,0,*76
1499036560.59,35955,16.94,73754.3,1.73,1.05,1.01,0,*73
1499036561.79,35956,16.94,73750.3,1.73,1.01,1.01,0,*74
1499036562.98,35957,16.94,73742.0,1.73,1.01,0.97,0,*4B
1499036564.18,35958,16.94,73730.8,1.73,1.01,0.97,0,*44
1499036565.37,35959,16.94,73734.0,1.73,1.01,0.97,0,*45
1499036566.59,35960,16.94,73748.8,1.73,1.01,0.95,0,*4D
1499036567.81,35961,16.94,73750.5,1.73,0.91,0.97,0,*76
1499036569.0,35962,16.94,73734.3,1.73,0.97,0.97,0,*73
1499036570.19,35963,16.94,73758.8,1.73,0.97,0.97,0,*72
1499036571.39,35964,16.94,73754.5,1.73,1.01,1.01,0,*75
1499036572.59,35965,16.94,73744.5,1.73,1.01,1.01,0,*74
1499036573.8,35966,16.94,73766.3,1.73,1.01,1.05,0,*73
1499036575.0,35967,16.94,73752.5,1.73,1.05,1.01,0,*72
1499036576.19,35968,16.94,73750.8,1.73,0.97,1.01,0,*47
1499036577.39,35969,16.94,73746.5,1.73,0.97,1.01,0,*46
1499036578.59,35970,16.94,73748.0,1.73,0.97,1.01,0,*4E
1499036579.79,35971,16.94,73740.8,1.73,0.97,1.05,0,*4B
1499036580.99,35972,16.94,73736.3,1.73,1.01,1.01,0,*72
1499036582.19,35973,16.94,73732.3,1.73,1.05,1.01,0,*77
1499036583.42,35974,16.94,73734.3,1.73,1.05,1.17,0,*77
1499036584.68,35975,16.94,73736.8,1.73,1.13,1.13,0,*75
1499036585.91,35976,16.94,73734.3,1.75,1.17,1.13,0,*74
1499036587.09,35977,16.94,73742.3,1.75,1.05,1.05,0,*71
1499036588.3,35978,16.94,73738.0,1.77,1.05,1.05,0,*7C
1499036589.48,35979,16.94,73742.5,1.75,1.01,1.05,0,*7B
1499036590.65,35980,16.94,73738.3,1.75,0.97,0.97,0,*79
1499036591.88,35981,16.94,73738.8,1.75,0.91,0.91,0,*78
1499036593.06,35982,16.94,73738.0,1.75,0.97,0.97,0,*7B
1499036594.23,35983,16.94,73746.5,1.75,0.97,0.97,0,*7A
1499036595.43,35984,16.94,73742.8,1.77,1.01,1.01,0,*7F
1499036596.61,35985,16.94,73748.3,1.75,1.01,1.05,0,*78
1499036597.8,35986,16.94,73736.3,1.75,1.01,1.01,0,*7F
1499036598.98,35987,16.94,73730.8,1.75,1.01,1.01,0,*7E
1499036600.15,35988,16.94,73730.3,1.75,0.97,1.01,0,*4F
1499036601.33,35989,16.94,73732.3,1.75,0.97,1.01,0,*4E
1499036602.51,35990,16.88,73728.8,1.75,1.05,1.05,0,*78
1499036603.77,35991,16.94,73734.3,1.77,1.09,1.09,0,*7B
1499036604.96,35992,16.94,73746.0,1.75,1.05,1.05,0,*7A
1499036606.22,35993,16.94,73742.3,1.77,1.09,1.09,0,*79
1499036607.45,35994,16.94,73736.5,1.77,1.05,1.09,0,*72
1499036608.63,35995,16.94,73734.0,1.75,1.05,1.01,0,*79
1499036609.9,35996,16.94,73742.3,1.77,1.09,1.17,0,*73
1499036611.13,35997,16.94,73740.8,1.75,1.17,1.17,0,*7F
1499036612.34,35998,16.94,73740.0,1.75,1.13,1.05,0,*77
1499036613.53,35999,16.94,73740.8,1.75,1.05,1.05,0,*71
1499036614.71,36000,16.94,73736.3,1.75,1.01,1.05,0,*7F
1499036615.89,36001,16.94,73736.3,1.75,1.01,1.05,0,*7E
1499036617.09,36002,16.94,73736.0,1.77,1.05,1.05,0,*7B
1499036618.3,36003,16.94,73738.0,1.77,1.05,1.05,0,*7A
1499036619.51,36004,16.94,73740.0,1.77,1.05,1.05,0,*7D
1499036620.73,36005,16.94,73746.5,1.77,0.95,1.01,0,*40
1499036621.96,36006,16.94,73736.0,1.75,0.79,0.91,0,*7B
1499036623.19,36007,16.94,73732.8,1.75,0.87,0.87,0,*7C
1499036624.38,36008,16.94,73728.8,1.75,0.87,0.97,0,*72
1499036625.6,36009,16.94,73732.8,1.75,0.79,0.79,0,*72
1499036626.82,36010,16.94,73732.3,1.75,0.75,0.75,0,*7A
1499036628.03,36011,16.94,73732.3,1.75,0.67,0.63,0,*7F
1499036629.28,36012,16.94,73726.5,1.73,0.79,0.79,0,*7E
1499036630.47,36013,16.94,73736.5,1.75,0.87,0.97,0,*78
1499036631.73,36014,16.94,73738.8,1.73,0.91,0.91,0,*78
1499036632.97,36015,16.94,73724.0,1.73,0.79,0.87,0,*78
1499036634.21,36016,16.94,73722.8,1.73,0.75,0.79,0,*76
1499036635.46,36017,16.94,73722.3,1.73,0.87,0.91,0,*7C
1499036636.71,36018,16.94,73730.5,1.73,0.87,0.91,0,*73
1499036637.96,36019,16.94,73726.3,1.73,0.87,0.91,0,*72
1499036639.2,36020,16.94,73712.5,1.73,0.79,0.79,0,*7F
1499036640.45,36021,16.94,73726.8,1.73,0.87,0.91,0,*79
1499036641.64,36022,16.94,73724.0,1.73,1.01,0.97,0,*43
1499036642.85,36023,16.94,73728.5,1.73,1.05,1.05,0,*7C
1499036644.05,36024,16.94,73730.0,1.73,1.05,1.05,0,*7B
1499036645.25,36025,16.94,73730.5,1.73,1.05,1.05,0,*7A
1499036646.45,36026,16.94,73728.8,1.73,1.05,1.05,0,*79
1499036647.71,36027,16.94,73728.8,1.73,1.13,1.17,0,*7C
1499036648.94,36028,16.94,73732.8,1.73,1.13,1.05,0,*70
1499036650.18,36029,16.94,73736.5,1.75,1.13,1.13,0,*70
1499036651.36,36030,16.94,73742.8,1.75,1.05,1.05,0,*78
1499036652.6,36031,16.94,73736.3,1.77,1.05,1.09,0,*77
1499036653.83,36032,16.94,73730.5,1.77,1.05,1.09,0,*74
1499036655.01,36033,16.94,73726.5,1.75,1.05,1.05,0,*7B
1499036656.22,36034,16.94,73732.5,1.77,1.05,1.05,0,*7E
1499036657.4,36035,16.94,73738.8,1.75,1.01,1.01,0,*7D
1499036658.58,36036,16.94,73728.8,1.75,1.01,1.01,0,*7E
1499036659.75,36037,16.94,73734.0,1.75,0.97,0.97,0,*7F
1499036660.93,36038,16.94,73730.5,1.75,0.97,1.01,0,*4E
1499036662.11,36039,16.94,73730.3,1.75,1.01,1.05,0,*75
1499036663.37,36040,16.94,73732.5,1.77,1.09,1.09,0,*7D
1499036664.61,36041,16.94,73736.3,1.75,1.13,1.13,0,*7E
1499036665.82,36042,16.94,73734.3,1.75,1.05,1.13,0,*7A
1499036667.05,36043,16.94,73740.8,1.77,1.05,1.09,0,*72
1499036668.23,36044,16.94,73742.8,1.75,1.01,1.05,0,*7F
1499036669.47,36045,16.94,73738.3,1.77,1.05,1.09,0,*74
1499036670.65,36046,16.94,73736.8,1.75,1.05,1.05,0,*79
1499036671.86,36047,16.94,73746.8,1.75,1.13,1.05,0,*7F
1499036673.07,36048,16.94,73748.3,1.77,1.05,1.05,0,*75
1499036674.25,36049,16.94,73750.0,1.75,1.01,1.01,0,*76
1499036675.46,36050,16.94,73748.8,1.77,1.05,1.05,0,*7C
1499036676.66,36051,16.94,73752.5,1.75,0.91,0.97,0,*79
1499036677.9,36052,16.94,73766.8,1.77,0.83,0.71,0,*73
1499036679.12,36053,16.94,73758.5,1.75,0.41,0.41,0,*7D
1499036680.31,36054,16.94,73754.8,1.75,-0.11,-0.11,0,*7A
1499036681.5,36055,16.94,73756.0,1.73,-0.07,-0.07,0,*7D
1499036682.74,36056,16.94,73752.8,1.71,0.13,0.13,0,*7C
1499036683.98,36057,16.94,73752.3,1.71,0.29,0.25,0,*71
1499036685.22,36058,16.94,73752.3,1.73,0.63,0.55,0,*75
1499036686.46,36059,16.94,73754.5,1.71,0.75,0.83,0,*7A
1499036687.7,36060,16.94,73750.8,1.71,0.75,0.75,0,*79
1499036688.94,36061,16.94,73746.5,1.71,0.75,0.75,0,*78
1499036690.18,36062,16.94,73746.8,1.71,0.83,0.75,0,*72
1499036691.42,36063,16.94,73748.0,1.71,0.75,0.75,0,*7A
1499036692.66,36064,16.94,73744.8,1.71,0.75,0.71,0,*79
1499036693.9,36065,16.94,73744.0,1.73,0.87,0.79,0,*7F
1499036695.12,36066,16.94,73748.5,1.69,0.79,0.75,0,*7A
1499036696.36,36067,16.94,73748.0,1.71,0.75,0.75,0,*7E
1499036697.6,36068,16.94,73754.5,1.71,0.71,0.63,0,*72
1499036698.84,36069,16.94,73752.3,1.71,0.63,0.71,0,*73
1499036700.08,36070,16.94,73750.0,1.71,0.75,0.75,0,*78
1499036701.33,36071,16.94,73758.5,1.71,0.83,0.83,0,*79
1499036702.58,36072,16.94,73758.0,1.71,0.87,0.87,0,*7A
1499036703.82,36073,16.94,73760.5,1.71,0.87,0.87,0,*7B
1499036705.07,36074,16.94,73756.8,1.71,0.87,0.87,0,*7C
1499036706.32,36075,16.94,73758.0,1.71,0.83,0.83,0,*7D
1499036707.55,36076,16.94,73762.3,1.71,0.83,0.95,0,*79
1499036708.79,36077,16.94,73764.5,1.71,0.95,0.95,0,*7F
1499036710.03,36078,16.94,73756.5,1.71,0.95,0.95,0,*70
1499036711.28,36079,16.94,73762.5,1.71,0.87,0.87,0,*71
1499036712.51,36080,16.94,73766.3,1.71,0.95,0.95,0,*77
1499036713.75,36081,16.94,73758.3,1.71,0.95,0.95,0,*76
1499036714.99,36082,16.94,73764.0,1.71,0.95,0.95,0,*75
1499036716.22,36083,16.94,73768.3,1.71,0.95,0.95,0,*74
1499036717.42,36084,16.94,73770.0,1.71,1.01,0.97,0,*4D
1499036718.62,36085,16.94,73768.8,1.71,0.97,1.01,0,*4C
1499036719.82,36086,16.94,73770.3,1.71,0.97,1.01,0,*4F
1499036721.01,36087,16.94,73764.3,1.71,0.97,0.97,0,*70
1499036722.21,36088,16.94,73756.8,1.71,0.97,0.97,0,*7F
1499036723.4,36089,16.94,73762.0,1.73,1.01,0.97,0,*42
1499036724.6,36090,16.94,73764.3,1.73,1.05,0.97,0,*4E
1499036725.79,36091,16.94,73772.3,1.71,1.01,0.97,0,*49
1499036726.99,36092,16.94,73770.0,1.73,1.05,1.01,0,*72
1499036728.2,36093,16.94,73772.0,1.71,1.01,1.01,0,*75
1499036729.45,36094,16.94,73760.8,1.71,1.09,1.13,0,*79
1499036730.71,36095,16.94,73758.8,1.73,1.13,1.13,0,*71
1499036731.94,36096,16.94,73762.3,1.73,1.13,1.01,0,*71
1499036733.17,36097,16.94,73764.0,1.73,1.05,1.13,0,*74
1499036734.43,36098,16.94,73768.8,1.73,1.13,1.17,0,*78
1499036735.69,36099,16.94,73772.0,1.73,1.13,1.13,0,*7D
1499036736.89,36100,16.94,73778.5,1.73,1.01,1.05,0,*78
1499036738.09,36101,16.94,73766.8,1.73,1.01,1.01,0,*7D
1499036739.29,36102,16.94,73760.0,1.73,1.01,0.97,0,*40
1499036740.49,36103,16.94,73766.8,1.77,1.01,1.01,0,*7B
1499036741.67,36104,16.94,73768.0,1.75,1.05,1.01,0,*7A
1499036742.85,36105,16.94,73776.5,1.75,1.05,1.05,0,*7F
1499036744.03,36106,16.94,73782.3,1.75,1.05,1.05,0,*7C
1499036745.21,36107,16.94,73768.0,1.75,1.01,1.05,0,*79
1499036746.39,36108,16.94,73768.5,1.75,1.05,1.01,0,*76
1499036747.58,36109,16.94,73770.0,1.75,1.01,1.01,0,*73
1499036748.78,36110,16.94,73764.3,1.77,1.05,1.05,0,*79
1499036749.95,36111,16.94,73764.5,1.75,0.97,0.97,0,*7A
1499036751.13,36112,16.94,73766.5,1.75,0.97,0.97,0,*79
1499036752.32,36113,16.94,73770.8,1.75,0.91,0.97,0,*7E
1499036753.5,36114,16.94,73764.0,1.75,0.97,0.97,0,*7F
1499036754.68,36115,16.94,73760.8,1.75,1.05,1.01,0,*7A
1499036755.86,36116,16.94,73754.3,1.75,1.01,1.05,0,*79
1499036757.06,36117,16.94,73754.5,1.77,1.05,1.05,0,*7E
1499036758.3,36118,16.94,73752.3,1.77,1.05,1.09,0,*7D
1499036759.48,36119,16.94,73756.5,1.75,1.05,1.05,0,*72
1499036760.66,36120,16.94,73762.3,1.75,1.01,1.01,0,*78
1499036761.87,36121,16.94,73746.5,1.77,1.01,1.01,0,*7B
1499036763.04,36122,16.94,73748.8,1.75,0.97,0.97,0,*7A
1499036764.24,36123,16.94,73758.3,1.77,1.01,1.01,0,*79
1499036765.45,36124,16.94,73752.8,1.77,1.01,1.01,0,*7E
1499036766.67,36125,16.94,73752.8,1.75,0.87,0.79,0,*7C
1499036767.9,36126,16.94,73758.3,1.75,0.79,0.87,0,*7F
1499036769.14,36127,16.94,73756.3,1.77,0.67,0.71,0,*7A
1499036770.35,36128,16.94,73760.0,1.75,0.67,0.67,0,*70
1499036771.56,36129,16.94,73764.3,1.75,0.67,0.63,0,*75
1499036772.78,36130,16.94,73762.5,1.75,0.55,0.55,0,*79
1499036774.03,36131,16.94,73766.0,1.73,0.63,0.55,0,*7B
1499036775.26,36132,16.94,73760.8,1.73,0.63,0.67,0,*79
1499036776.5,36133,16.94,73756.5,1.73,0.55,0.63,0,*79
1499036777.73,36134,16.94,73738.5,1.73,0.67,0.75,0,*78
1499036778.98,36135,16.94,73748.5,1.71,0.83,0.79,0,*7D
1499036780.23,36136,16.94,73750.3,1.73,0.87,0.91,0,*7E
1499036781.47,36137,16.94,73754.5,1.71,0.87,0.95,0,*79
1499036782.71,36138,16.94,73748.3,1.71,0.83,0.87,0,*71
1499036783.97,36139,16.94,73748.8,1.73,0.91,0.91,0,*76
1499036785.18,36140,16.94,73754.0,1.71,0.95,0.97,0,*78
1499036786.41,36141,16.94,73748.3,1.73,1.05,1.13,0,*7E
1499036787.63,36142,16.94,73752.3,1.73,1.05,1.13,0,*7D
1499036788.83,36143,16.94,73736.0,1.71,0.97,0.97,0,*79
1499036790.05,36144,16.94,73750.0,1.73,0.91,0.97,0,*7A
1499036791.24,36145,16.94,73752.8,1.73,0.97,0.97,0,*7D
1499036792.49,36146,16.94,73754.3,1.73,0.91,0.91,0,*7E
1499036793.74,36147,16.94,73754.8,1.71,0.87,0.83,0,*79
1499036794.98,36148,16.94,73742.0,1.71,0.71,0.75,0,*76
1499036796.23,36149,16.94,73744.8,1.73,0.79,0.87,0,*70
1499036797.42,36150,16.94,73742.0,1.73,0.97,0.97,0,*79
1499036798.67,36151,16.94,73738.5,1.73,0.91,0.87,0,*7F
1499036799.92,36152,16.94,73742.3,1.73,0.87,0.83,0,*7F
1499036801.16,36153,16.94,73748.0,1.71,0.75,0.75,0,*78
1499036802.4,36154,16.94,73742.3,1.71,0.83,0.83,0,*7F
1499036803.64,36155,16.94,73756.3,1.71,0.75,0.71,0,*7A
1499036804.88,36156,16.94,73754.5,1.71,0.75,0.83,0,*74
1499036806.12,36157,16.94,73750.3,1.71,0.75,0.83,0,*75
1499036807.37,36158,16.94,73748.0,1.71,0.87,0.83,0,*77
1499036808.61,36159,16.94,73746.8,1.71,0.87,0.83,0,*76
1499036809.85,36160,16.94,73746.3,1.71,0.83,0.95,0,*7F
1499036811.09,36161,16.94,73744.8,1.71,0.75,0.87,0,*74
1499036812.34,36162,16.94,73746.5,1.71,0.87,0.87,0,*7A
1499036813.58,36163,16.94,73744.5,1.71,0.87,0.95,0,*78
1499036814.83,36164,16.94,73750.8,1.71,0.87,0.87,0,*7C
1499036816.07,36165,16.94,73744.5,1.71,0.83,0.83,0,*7D
1499036817.32,36166,16.94,73744.8,1.71,0.87,0.83,0,*7A
1499036818.56,36167,16.94,73748.8,1.71,0.95,0.95,0,*7F
1499036819.77,36168,16.94,73746.8,1.71,0.95,0.97,0,*72
1499036821.01,36169,16.94,73740.5,1.71,0.95,0.95,0,*71
1499036822.2,36170,16.94,73742.8,1.73,0.97,0.97,0,*7B
1499036823.45,36171,16.94,73734.3,1.71,0.87,0.87,0,*78
1499036824.7,36172,16.94,73732.8,1.71,0.83,0.83,0,*7B
1499036825.95,36173,16.94,73736.5,1.73,0.91,0.91,0,*78
1499036827.19,36174,16.94,73740.5,1.71,0.75,0.87,0,*70
1499036828.43,36175,16.94,73744.0,1.71,0.83,0.83,0,*7C
1499036829.67,36176,16.94,73732.0,1.71,0.75,0.83,0,*76
1499036830.92,36177,16.94,73732.5,1.71,0.83,0.75,0,*77
1499036832.16,36178,16.94,73736.3,1.73,0.87,0.87,0,*73
1499036833.41,36179,16.94,73736.5,1.71,0.71,0.75,0,*74
1499036834.65,36180,16.94,73740.8,1.71,0.71,0.75,0,*72
1499036835.9,36181,16.94,73734.8,1.71,0.83,0.75,0,*7E
1499036837.14,36182,16.94,73734.8,1.71,0.83,0.83,0,*74
1499036838.36,36183,16.94,73736.0,1.73,0.91,0.97,0,*71
1499036839.61,36184,16.94,73746.8,1.71,0.83,0.83,0,*72
1499036840.82,36185,16.94,73734.8,1.69,0.75,0.83,0,*73
1499036842.06,36186,16.94,73746.5,1.71,0.75,0.75,0,*70
1499036843.3,36187,16.94,73744.0,1.71,0.75,0.75,0,*71
1499036844.54,36188,16.94,73748.0,1.71,0.63,0.63,0,*7E
1499036845.75,36189,16.94,73754.8,1.69,0.63,0.63,0,*76
1499036846.99,36190,16.94,73750.0,1.67,0.55,0.59,0,*7C
1499036848.2,36191,16.94,73752.5,1.69,0.59,0.51,0,*77
1499036849.45,36192,16.94,73748.5,1.67,0.47,0.55,0,*71
1499036850.69,36193,16.94,73752.3,1.67,0.55,0.55,0,*73
1499036851.93,36194,16.94,73756.5,1.67,0.47,0.51,0,*73
1499036853.17,36195,16.94,73758.0,1.67,0.47,0.37,0,*72
1499036854.39,36196,16.94,73756.0,1.69,0.51,0.51,0,*78
1499036855.62,36197,16.94,73754.5,1.67,0.55,0.67,0,*76
1499036856.86,36198,16.94,73756.0,1.67,0.79,0.79,0,*78
1499036858.1,36199,16.94,73756.5,1.67,0.83,0.79,0,*7C
1499036859.34,36200,16.94,73768.8,1.67,0.79,0.71,0,*72
1499036860.59,36201,16.94,73778.0,1.67,0.79,0.71,0,*73
1499036861.83,36202,16.94,73778.8,1.67,0.55,0.55,0,*78
1499036863.07,36203,16.94,73744.8,1.67,0.59,0.59,0,*79
1499036864.31,36204,16.94,73760.3,1.67,0.79,0.79,0,*7E
1499036865.55,36205,16.94,73762.8,1.67,0.83,0.83,0,*7F
1499036866.77,36206,16.94,73762.0,1.65,0.79,0.83,0,*7B
1499036867.98,36207,16.94,73752.8,1.65,0.71,0.79,0,*77
1499036869.23,36208,16.94,73750.3,1.67,0.91,0.91,0,*72
1499036870.48,36209,16.94,73756.0,1.67,0.91,0.91,0,*73
1499036871.73,36210,16.94,73754.0,1.67,0.91,0.91,0,*7B
1499036872.98,36211,16.94,73744.3,1.67,0.91,0.83,0,*79
1499036874.23,36212,16.94,73754.8,1.67,0.91,0.91,0,*79
1499036875.4,36213,16.94,73754.0,1.69,0.97,0.97,0,*76
1499036876.56,36214,16.94,73756.3,1.69,0.97,0.97,0,*71
1499036877.81,36215,16.94,73760.5,1.67,0.95,0.91,0,*7A
1499036879.05,36216,16.94,73758.8,1.67,0.83,0.91,0,*7E
1499036880.26,36217,16.94,73758.3,1.69,0.75,0.87,0,*7F
1499036881.51,36218,16.94,73764.5,1.67,0.79,0.79,0,*73
1499036882.74,36219,16.94,73758.8,1.67,0.71,0.71,0,*72
1499036883.95,36220,16.94,73750.5,1.69,0.63,0.71,0,*75
1499036885.17,36221,16.94,73750.5,1.69,0.75,0.71,0,*73
1499036886.41,36222,16.94,73748.5,1.67,0.79,0.79,0,*7A
1499036887.65,36223,16.94,73754.3,1.67,0.79,0.83,0,*7E
1499036888.89,36224,16.94,73758.0,1.67,0.79,0.79,0,*7C
1499036890.13,36225,16.94,73754.8,1.67,0.71,0.71,0,*7D
1499036891.37,36226,16.94,73760.5,1.67,0.59,0.59,0,*7E
1499036892.6,36227,16.94,73764.0,1.67,0.67,0.71,0,*78
1499036893.8,36228,16.94,73764.8,1.65,0.67,0.67,0,*72
1499036895.0,36229,16.94,73768.8,1.65,0.67,0.67,0,*73
1499036896.21,36230,16.94,73770.0,1.65,0.59,0.59,0,*7B
1499036897.45,36231,16.94,73772.5,1.67,0.47,0.47,0,*78
1499036898.69,36232,16.94,73768.5,1.67,0.55,0.55,0,*7B
1499036899.93,36233,16.94,73766.3,1.67,0.55,0.67,0,*7B
1499036901.16,36234,16.94,73768.0,1.67,0.67,0.67,0,*7D
1499036902.37,36235,16.94,73764.3,1.65,0.71,0.67,0,*79
1499036903.58,36236,16.94,73764.0,1.65,0.79,0.79,0,*7D
1499036904.79,36237,16.94,73752.8,1.61,0.75,0.79,0,*74
1499036906.01,36238,16.94,73764.3,1.65,0.87,0.91,0,*74
1499036907.27,36239,16.94,73760.3,1.67,0.91,0.91,0,*70
1499036908.51,36240,16.94,73762.0,1.67,0.83,0.91,0,*7D
1499036909.73,36241,16.94,73766.8,1.65,0.91,0.83,0,*7E
1499036910.95,36242,16.94,73770.3,1.65,0.91,0.83,0,*7D
1499036912.17,36243,16.94,73772.8,1.65,0.83,0.83,0,*7F
1499036913.38,36244,16.94,73760.5,1.65,0.83,0.79,0,*7D
1499036914.63,36245,16.94,73756.5,1.67,0.91,0.91,0,*7B
1499036915.83,36246,16.94,73760.0,1.65,0.97,0.91,0,*7C
1499036917.02,36247,16.94,73764.3,1.67,0.97,1.05,0,*43
1499036918.22,36248,16.94,73764.5,1.67,0.97,1.05,0,*4C
1499036919.42,36249,16.94,73764.0,1.67,1.05,1.05,0,*77
1499036920.65,36250,16.94,73770.0,1.67,0.95,0.95,0,*7F
1499036921.82,36251,16.94,73766.3,1.69,0.97,0.97,0,*70
1499036922.99,36252,16.94,73766.3,1.69,0.97,0.97,0,*73
1499036924.22,36253,16.94,73766.8,1.67,0.95,0.95,0,*7C
1499036925.43,36254,16.94,73768.8,1.69,0.95,0.95,0,*75
1499036926.67,36255,16.94,73766.0,1.67,0.91,0.95,0,*7E
1499036927.9,36256,16.94,73770.0,1.67,0.95,0.95,0,*79
1499036929.11,36257,16.94,73774.3,1.67,0.95,0.97,0,*7A
1499036930.3,36258,16.94,73770.8,1.69,0.95,0.97,0,*7B
1499036931.53,36259,16.94,73768.8,1.67,0.95,0.95,0,*76